sat.trackr.live / text

‹ back to catalog

STARLINK-34929

NORAD 65178 · 2025-175E

PAYLOAD ACTIVE UNKNOWN

§ Identity

Operator
Country
US
Launch date
2025-08-14
Launch site
AFWTR
Launch vehicle
Mass (kg)
RCS (m²)

Purposes: comms

External: N2YO · Heavens-Above · Gunter

§ Orbital elements

Epoch: 2026-09-20T14:41:21.871680Z

Period
93.91 min
Inclination
97.2843°
Eccentricity
0.0002357
Mean motion
15.33451235 rev/d
Perigee alt
463.9 km
Apogee alt
467.1 km
Semi-major
6,843.7 km
B*
3.0040e-4
RAAN
132.6432°
Arg perigee
90.2096°
Mean anomaly
269.9417°
Rev number
6,215

§ Raw data

STARLINK-349291 65178U 25175E   26263.61205870  .00009638  00000+0  30040-3 0  99902 65178  97.2843 132.6432 0002357  90.2096 269.9417 15.33451235 62150

JSON: /api/v1/satellites/65178 · /tle

For live sub-satellite position, see the globe view (requires WebGL).

§ Visibility from observer

Set your observer location to see the next 7 days of passes ≥ 10°. The values pass through the URL so the page stays shareable.

No JS? Fill the form by hand. The geolocation button needs JavaScript.